IW0DNR Weather Reports


time (UTC)temp
C
wind
direction
speed
KPH
gust
KPH
rain 1hr
cm
rain 24hr
cm
rain mn
cm
humidity
%
barometer
mb
20260906070045 26 15 3.2 6.4 0.00 0.00 0.00 64 1018.4
20260906064541 25 5 1.6 8.0 0.00 0.00 0.00 68 1018.4
20260906063037 24 29 1.6 6.4 0.00 0.00 0.00 70 1018.4
20260906061536 24 360 1.6 6.4 0.00 0.00 0.00 71 1018.3
20260906060035 23 36 4.8 9.7 0.00 0.00 0.00 72 1018.1
20260906054532 23 22 4.8 9.7 0.00 0.00 0.00 73 1017.9
20260906053030 23 22 3.2 6.4 0.00 0.00 0.00 74 1017.8
20260906051528 23 13 3.2 8.0 0.00 0.00 0.00 75 1017.7
20260906050028 23 34 4.8 9.7 0.00 0.00 0.00 74 1017.7
20260906044527 23 12 3.2 8.0 0.00 0.00 0.00 75 1017.6
20260906043030 23 12 3.2 8.0 0.00 0.00 0.00 75 1017.6
20260906041524 22 340 4.8 9.7 0.00 0.00 0.00 76 1017.5
20260906040029 22 24 3.2 8.0 0.00 0.00 0.00 77 1017.4
20260906034533 22 18 1.6 4.8 0.00 0.00 0.00 78 1017.4
20260906033026 22 29 3.2 8.0 0.00 0.00 0.00 77 1017.3
20260906031519 23 28 3.2 8.0 0.00 0.00 0.00 78 1017.3
20260906030018 22 26 3.2 4.8 0.00 0.00 0.00 78 1017.4
20260906024516 23 26 1.6 6.4 0.00 0.00 0.00 79 1017.4
20260906023016 23 26 1.6 6.4 0.00 0.00 0.00 79 1017.5
20260906021514 23 27 1.6 4.8 0.00 0.00 0.00 80 1017.5
20260906020012 23 27 1.6 3.2 0.00 0.00 0.00 80 1017.5
20260906014524 23 27 0.0 1.6 0.00 0.00 0.00 81 1017.4
20260906013015 23 27 0.0 1.6 0.00 0.00 0.00 82 1017.4
20260906011508 23 27 0.0 1.6 0.00 0.00 0.00 84 1017.3
20260906010006 23 27 0.0 1.6 0.00 0.00 0.00 86 1017.4
20260906004505 23 27 0.0 1.6 0.00 0.00 0.00 86 1017.5
20260906003002 23 27 0.0 0.0 0.00 0.00 0.00 86 1017.6
20260906001502 23 27 0.0 0.0 0.00 0.00 0.00 86 1017.6
20260906000106 23 27 0.0 1.6 0.00 0.00 0.00 86 1017.5
20260905234608 23 27 0.0 0.0 0.00 0.00 0.00 86 1017.5
20260905233100 23 27 0.0 3.2 0.00 0.00 0.00 86 1017.5
20260905231558 23 27 0.0 3.2 0.00 0.00 0.00 86 1017.5
20260905230057 24 27 0.0 3.2 0.00 0.00 0.00 86 1017.5
20260905224556 24 27 1.6 4.8 0.00 0.00 0.00 86 1017.5
20260905223055 24 27 0.0 3.2 0.00 0.00 0.00 86 1017.5
20260905221553 24 27 0.0 4.8 0.00 0.00 0.00 86 1017.5
20260905220051 24 28 0.0 3.2 0.00 0.00 0.00 86 1017.3
20260905214551 24 28 1.6 4.8 0.00 0.00 0.00 86 1017.4
20260905213050 24 28 0.0 4.8 0.00 0.00 0.00 86 1017.3
20260905211549 24 28 0.0 3.2 0.00 0.00 0.00 85 1017.2
20260905210050 25 28 0.0 6.4 0.00 0.00 0.00 85 1017.1
20260905204559 25 28 1.6 4.8 0.00 0.00 0.00 85 1017.1
20260905203055 25 28 1.6 3.2 0.00 0.00 0.00 84 1017.1
20260905201548 25 28 0.0 4.8 0.00 0.00 0.00 84 1017.2
20260905200054 25 28 3.2 6.4 0.00 0.00 0.00 84 1017.2
20260905194549 25 23 0.0 6.4 0.00 0.00 0.00 83 1017.0
20260905193103 25 26 1.6 6.4 0.00 0.00 0.00 82 1017.1
20260905191553 25 26 1.6 6.4 0.00 0.00 0.00 81 1016.9
20260905190049 26 51 0.0 6.4 0.00 0.00 0.00 80 1016.8
20260905184544 26 52 1.6 4.8 0.00 0.00 0.00 79 1016.6
20260905183043 26 53 0.0 4.8 0.00 0.00 0.00 78 1016.5
20260905181544 26 236 0.0 1.6 0.00 0.00 0.00 76 1016.3
20260905180044 27 236 0.0 1.6 0.00 0.00 0.00 74 1016.3
20260905174541 27 236 0.0 1.6 0.00 0.00 0.00 72 1016.2
20260905173040 27 235 1.6 6.4 0.00 0.00 0.00 72 1016.1
20260905171540 27 197 3.2 8.0 0.00 0.00 0.00 72 1016.1
20260905170047 28 250 4.8 14.5 0.00 0.00 0.00 69 1016.0
20260905164541 28 229 3.2 17.7 0.00 0.00 0.00 69 1016.0
20260905163038 28 237 3.2 16.1 0.00 0.00 0.00 69 1016.1
20260905161538 28 194 6.4 14.5 0.00 0.00 0.00 71 1016.1
20260905160044 28 151 6.4 16.1 0.00 0.00 0.00 70 1016.1
20260905154537 28 249 6.4 17.7 0.00 0.00 0.00 71 1016.1
20260905153039 28 159 6.4 17.7 0.00 0.00 0.00 71 1016.3
20260905151536 28 171 8.0 20.9 0.00 0.00 0.00 71 1016.5
20260905150037 28 215 9.7 19.3 0.00 0.00 0.00 75 1016.5
20260905144543 28 288 3.2 22.5 0.00 0.00 0.00 77 1016.3
20260905143047 28 227 6.4 25.7 0.00 0.00 0.00 77 1016.5
20260905141533 28 291 9.7 27.4 0.00 0.00 0.00 76 1016.5
20260905140031 29 217 6.4 19.3 0.00 0.00 0.00 74 1016.6
20260905134529 30 224 9.7 17.7 0.00 0.00 0.00 71 1016.6
20260905133027 29 219 4.8 22.5 0.00 0.00 0.00 65 1016.8
20260905131541 29 93 3.2 17.7 0.00 0.00 0.00 67 1016.9
20260905130026 29 244 9.7 20.9 0.00 0.00 0.00 62 1017.0
20260905124529 30 248 8.0 17.7 0.00 0.00 0.00 59 1017.1
20260905123022 29 180 6.4 19.3 0.00 0.00 0.00 61 1017.0
20260905121521 30 222 8.0 16.1 0.00 0.00 0.00 59 1017.1
20260905120021 30 155 6.4 11.3 0.00 0.00 0.00 59 1017.1
20260905114535 30 221 8.0 16.1 0.00 0.00 0.00 58 1017.2
20260905113031 30 173 4.8 12.9 0.00 0.00 0.00 53 1017.3
20260905111518 30 180 4.8 12.9 0.00 0.00 0.00 51 1017.4
20260905110017 30 226 4.8 11.3 0.00 0.00 0.00 50 1017.4
20260905104520 30 196 4.8 12.9 0.00 0.00 0.00 48 1017.4
20260905103023 30 210 6.4 12.9 0.00 0.00 0.00 46 1017.5
20260905101515 30 214 3.2 11.3 0.00 0.00 0.00 48 1017.5
20260905100021 30 210 6.4 12.9 0.00 0.00 0.00 45 1017.6
20260905094512 30 227 4.8 12.9 0.00 0.00 0.00 46 1017.8
20260905093010 30 113 4.8 11.3 0.00 0.00 0.00 43 1017.7
20260905091506 30 150 4.8 14.5 0.00 0.00 0.00 46 1017.7
20260905090005 29 165 4.8 9.7 0.00 0.00 0.00 47 1017.7
20260905084503 29 194 4.8 11.3 0.00 0.00 0.00 47 1017.8
20260905083100 28 240 3.2 11.3 0.00 0.00 0.00 51 1017.7
20260905081604 28 206 4.8 9.7 0.00 0.00 0.00 53 1017.5
20260905080101 28 211 3.2 8.0 0.00 0.00 0.00 59 1017.3
20260905074553 28 227 4.8 9.7 0.00 0.00 0.00 60 1017.1
20260905073050 28 220 3.2 9.7 0.00 0.00 0.00 60 1017.1
20260905071555 27 199 1.6 4.8 0.00 0.00 0.00 60 1017.0